Погода в Воронцово

Россия / Ивановская область     56°58′56″N   40°31′25″E
темп.,
°C
ветер,
м/с
пор.,
м/с
влажн.,
%
обл.,
%
осадки,
мм/ч
давл.,
гПа
погр.,
м
17 мая, пн
пн1700:00+13зюз22900 0.0 101426
03:00+12юз11925 0.0 101510
06:00+14ююв0084100 0.0 101641
09:00+20вюв236289 0.0 1016596
12:00+24вюв334865 0.0 10151444
15:00+26вюв354653 0.0 10151644
18:00+24вюв386142 0.0 1014627
21:00+18в41190100 0.6 1014262
18 мая, вт
вт1800:00+16вюв3997100 0.0 1014172
03:00+15вюв389394 0.0 1014136
06:00+15вюв3128351 0.0 1014249
09:00+22юв495498 0.0 1014424
12:00+27юв5103915 0.0 10131333
15:00+28юв510382 0.0 10132381
18:00+25вюв51147100 0.0 1012966
21:00+20вюв516675 0.0 1012558
19 мая, ср
ср1900:00+18юв414745 0.0 1012365
03:00+16вюв415771 0.0 1012328
06:00+17юв516660 0.0 1012431
09:00+23юв513496 0.0 1012613
12:00+28юв613360 0.0 10122446
15:00+29юв511375 0.0 10113680
18:00+26вюв611535 0.0 10111379
21:00+22вюв514700 0.0 1012635
20 мая, чт
чт2000:00+19вюв514780 0.0 1012480
03:00+16вюв312810 0.0 1012374
06:00+17вюв412760 0.0 1011402
09:00+22вюв59570 0.0 1010698
12:00+25вюв71049100 0.0 10091433
15:00+26юв7125036 0.1 10082165
18:00+20ююв6117774 1.6 10101155
21:00+16ююв3993100 2.1 1010373
21 мая, пт
пт2100:00+15ююв3119231 0.0 1010404
03:00+13ююв411944 0.0 1010405
06:00+14ююв499299 0.0 1011493
09:00+18ю576457 0.0 10101049
12:00+20ю7105393 0.3 10091917
15:00+13ю51291100 2.6 1009817
18:00+14ю512918 1.6 1008944
21:00+11ююз6128496 1.9 1008967